Hourly Weather Aliwal North

Today, 25 February, Thursday

Time Temperature Precipitation Wind Pressure Humidity
00:00 +18°C° 0.8 mm 1 mps 650 mmHg 85%
01:00 +18°C° 0.8 mm 1 mps 650 mmHg 87%
02:00 +16°C° 0 mm 1 mps 650 mmHg 87%
03:00 +16°C° 0.1 mm 1 mps 649 mmHg 89%
04:00 +16°C° 0.1 mm 1 mps 649 mmHg 90%
05:00 +15°C° 0.1 mm 1 mps 649 mmHg 91%
06:00 +16°C° 0 mm 1 mps 649 mmHg 86%
07:00 +19°C° 0 mm 1 mps 650 mmHg 81%
08:00 +20°C° 0 mm 1 mps 650 mmHg 76%
09:00 +21°C° 0.1 mm 2 mps 651 mmHg 66%
10:00 +24°C° 0.1 mm 2 mps 651 mmHg 56%
11:00 +26°C° 0.1 mm 3 mps 651 mmHg 47%
12:00 +27°C° 0 mm 4 mps 651 mmHg 39%
13:00 +29°C° 0 mm 5 mps 651 mmHg 30%
14:00 +30°C° 0 mm 7 mps 650 mmHg 22%
15:00 +30°C° 0 mm 7 mps 650 mmHg 22%
16:00 +29°C° 0 mm 7 mps 650 mmHg 22%
17:00 +29°C° 0 mm 7 mps 650 mmHg 22%
18:00 +26°C° 0 mm 7 mps 649 mmHg 37%
19:00 +22°C° 0 mm 7 mps 649 mmHg 52%
20:00 +18°C° 0 mm 7 mps 649 mmHg 66%
21:00 +17°C° 0 mm 7 mps 649 mmHg 70%
22:00 +17°C° 0 mm 6 mps 649 mmHg 73%
23:00 +16°C° 0 mm 6 mps 649 mmHg 76%

Tomorrow, 26 February, Friday

Time Temperature Precipitation Wind Pressure Humidity
00:00 +15°C° 0 mm 5 mps 649 mmHg 77%
01:00 +15°C° 0 mm 5 mps 649 mmHg 79%
02:00 +14°C° 0 mm 4 mps 649 mmHg 80%
03:00 +14°C° 0 mm 4 mps 649 mmHg 81%
04:00 +13°C° 0 mm 4 mps 649 mmHg 82%
05:00 +13°C° 0 mm 4 mps 649 mmHg 83%
06:00 +14°C° 0 mm 5 mps 650 mmHg 77%
07:00 +15°C° 0 mm 6 mps 650 mmHg 71%
08:00 +16°C° 0 mm 6 mps 651 mmHg 64%
09:00 +20°C° 0 mm 5 mps 651 mmHg 56%
10:00 +22°C° 0 mm 4 mps 652 mmHg 48%
11:00 +25°C° 0 mm 4 mps 652 mmHg 40%
12:00 +26°C° 0 mm 3 mps 652 mmHg 36%
13:00 +27°C° 0 mm 2 mps 652 mmHg 31%
14:00 +28°C° 0 mm 1 mps 652 mmHg 26%
15:00 +28°C° 0 mm 3 mps 651 mmHg 29%
16:00 +27°C° 0 mm 5 mps 651 mmHg 33%
17:00 +27°C° 0 mm 7 mps 651 mmHg 36%
18:00 +23°C° 0 mm 7 mps 650 mmHg 46%
19:00 +21°C° 0 mm 7 mps 650 mmHg 56%
20:00 +17°C° 0 mm 7 mps 650 mmHg 66%
21:00 +17°C° 0 mm 7 mps 650 mmHg 69%
22:00 +16°C° 0 mm 6 mps 650 mmHg 72%
23:00 +16°C° 0 mm 5 mps 651 mmHg 76%

Day after tomorrow, 27 February, Saturday

Time Temperature Precipitation Wind Pressure Humidity
00:00 +15°C° 0 mm 5 mps 650 mmHg 77%
01:00 +15°C° 0 mm 4 mps 650 mmHg 79%
02:00 +14°C° 0 mm 3 mps 650 mmHg 81%
03:00 +15°C° 0 mm 2 mps 650 mmHg 82%
04:00 +15°C° 0 mm 2 mps 650 mmHg 83%
05:00 +14°C° 0 mm 1 mps 650 mmHg 84%
06:00 +16°C° 0 mm 1 mps 651 mmHg 79%
07:00 +18°C° 0 mm 1 mps 652 mmHg 73%
08:00 +19°C° 0 mm 1 mps 652 mmHg 68%
09:00 +21°C° 0 mm 3 mps 653 mmHg 60%
10:00 +23°C° 0 mm 4 mps 653 mmHg 52%
11:00 +26°C° 0 mm 5 mps 653 mmHg 45%
12:00 +27°C° 0 mm 5 mps 653 mmHg 41%
13:00 +28°C° 0 mm 4 mps 653 mmHg 36%
14:00 +29°C° 0 mm 4 mps 652 mmHg 32%
15:00 +29°C° 0 mm 3 mps 652 mmHg 31%
16:00 +29°C° 0 mm 2 mps 652 mmHg 30%
17:00 +29°C° 0 mm 1 mps 652 mmHg 30%
18:00 +27°C° 0 mm 2 mps 652 mmHg 35%
19:00 +26°C° 0 mm 2 mps 652 mmHg 39%
20:00 +25°C° 0 mm 2 mps 652 mmHg 44%
21:00 +23°C° 0 mm 2 mps 652 mmHg 51%
22:00 +21°C° 0 mm 3 mps 652 mmHg 59%
23:00 +20°C° 0 mm 3 mps 652 mmHg 66%

28 February, Sunday

Time Temperature Precipitation Wind Pressure Humidity
00:00 +19°C° 0 mm 3 mps 652 mmHg 71%
01:00 +18°C° 0 mm 2 mps 651 mmHg 76%
02:00 +17°C° 0 mm 2 mps 651 mmHg 80%
03:00 +17°C° 0 mm 2 mps 651 mmHg 80%
04:00 +17°C° 0 mm 2 mps 651 mmHg 79%
05:00 +18°C° 0 mm 1 mps 651 mmHg 79%
06:00 +18°C° 0 mm 2 mps 652 mmHg 73%
07:00 +20°C° 0 mm 3 mps 653 mmHg 67%
08:00 +21°C° 0 mm 4 mps 653 mmHg 60%
09:00 +23°C° 0 mm 4 mps 653 mmHg 54%
10:00 +26°C° 0 mm 4 mps 654 mmHg 47%
11:00 +28°C° 0 mm 4 mps 654 mmHg 41%
12:00 +29°C° 0 mm 3 mps 654 mmHg 37%
13:00 +30°C° 0 mm 2 mps 653 mmHg 33%
14:00 +30°C° 0 mm 2 mps 653 mmHg 28%
15:00 +30°C° 0.1 mm 3 mps 653 mmHg 31%
16:00 +29°C° 0.1 mm 3 mps 652 mmHg 34%
17:00 +28°C° 0.1 mm 4 mps 652 mmHg 37%
18:00 +26°C° 0.2 mm 4 mps 652 mmHg 44%
19:00 +23°C° 0.2 mm 5 mps 652 mmHg 52%
20:00 +22°C° 0.2 mm 5 mps 653 mmHg 59%
21:00 +21°C° 0.6 mm 4 mps 653 mmHg 64%
22:00 +20°C° 0.6 mm 3 mps 653 mmHg 69%
23:00 +19°C° 0.6 mm 3 mps 653 mmHg 74%

1 March, Monday

Time Temperature Precipitation Wind Pressure Humidity
00:00 +19°C° 0.2 mm 2 mps 653 mmHg 77%
01:00 +18°C° 0.2 mm 2 mps 652 mmHg 80%
02:00 +17°C° 0.2 mm 2 mps 652 mmHg 82%
03:00 +18°C° 0 mm 1 mps 652 mmHg 83%
04:00 +18°C° 0 mm 1 mps 652 mmHg 84%
05:00 +18°C° 0 mm 1 mps 652 mmHg 85%
06:00 +19°C° 0 mm 1 mps 652 mmHg 77%
07:00 +19°C° 0 mm 2 mps 653 mmHg 70%
08:00 +20°C° 0 mm 3 mps 653 mmHg 62%
09:00 +22°C° 0 mm 3 mps 653 mmHg 55%
10:00 +25°C° 0 mm 4 mps 654 mmHg 48%
11:00 +27°C° 0 mm 4 mps 654 mmHg 41%
12:00 +28°C° 0 mm 4 mps 654 mmHg 37%
13:00 +29°C° 0 mm 4 mps 654 mmHg 34%
14:00 +30°C° 0 mm 3 mps 653 mmHg 31%
15:00 +30°C° 0 mm 3 mps 653 mmHg 31%
16:00 +29°C° 0 mm 4 mps 652 mmHg 32%
17:00 +29°C° 0 mm 4 mps 652 mmHg 33%
18:00 +28°C° 0 mm 4 mps 652 mmHg 37%
19:00 +26°C° 0 mm 3 mps 652 mmHg 41%
20:00 +25°C° 0 mm 3 mps 652 mmHg 45%
21:00 +24°C° 0.1 mm 3 mps 652 mmHg 50%
22:00 +21°C° 0.1 mm 3 mps 652 mmHg 56%
23:00 +20°C° 0.1 mm 2 mps 652 mmHg 61%

2 March, Tuesday

Time Temperature Precipitation Wind Pressure Humidity
00:00 +20°C° 0 mm 2 mps 652 mmHg 64%
01:00 +19°C° 0 mm 2 mps 651 mmHg 67%
02:00 +20°C° 0 mm 1 mps 651 mmHg 70%
03:00 +19°C° 0.3 mm 1 mps 651 mmHg 72%
04:00 +19°C° 0.3 mm 1 mps 651 mmHg 74%
05:00 +19°C° 0.3 mm 1 mps 651 mmHg 77%
06:00 +19°C° 0.5 mm 2 mps 652 mmHg 72%
07:00 +20°C° 0.5 mm 3 mps 652 mmHg 68%
08:00 +21°C° 0.5 mm 4 mps 653 mmHg 64%
09:00 +23°C° 0.3 mm 4 mps 653 mmHg 57%
10:00 +26°C° 0.3 mm 4 mps 653 mmHg 49%
11:00 +28°C° 0.3 mm 5 mps 653 mmHg 42%
12:00 +28°C° 0.1 mm 5 mps 653 mmHg 40%
13:00 +28°C° 0.1 mm 5 mps 653 mmHg 39%
14:00 +29°C° 0.1 mm 5 mps 653 mmHg 38%
15:00 +28°C° 0.2 mm 4 mps 652 mmHg 42%
16:00 +27°C° 0.2 mm 4 mps 651 mmHg 46%
17:00 +25°C° 0.2 mm 3 mps 651 mmHg 50%
18:00 +24°C° 0.1 mm 3 mps 651 mmHg 54%
19:00 +23°C° 0.1 mm 2 mps 651 mmHg 58%
20:00 +22°C° 0.1 mm 1 mps 651 mmHg 62%
21:00 +21°C° 0.3 mm 1 mps 651 mmHg 65%
22:00 +21°C° 0.3 mm 1 mps 651 mmHg 69%
23:00 +18°C° 0.3 mm 0 mps 651 mmHg 73%
Show more